Regional Weather Roundup
Issued by NWS Little Rock, AR

Home | Current Version | Previous Version | Graphics & Text | Print | Product List | Glossary On
Versions: 1 2 3 4 5 6 7 8 9 10 11 12 13 14 15 16 17 18 19 20 21 22 23 24 25 26 27 28 29 30 31 32
000
ASUS44 KLZK 230405
RWRLZK

WEATHER ROUNDUP FOR ARKANSAS
NATIONAL WEATHER SERVICE LITTLE ROCK AR
1100 PM CDT WED MAR 22 2017

NOTE: "FAIR" INDICATES FEW OR NO CLOUDS BELOW 12,000 FEET WITH NO
SIGNIFICANT WEATHER AND/OR OBSTRUCTIONS TO VISIBILITY.

ARZ001-003-010-029-230500-
NORTHWEST ARKANSAS

CITY           SKY/WX    TMP DP  RH WIND       PRES   REMARKS
FAYETTEVILLE   MOCLDY    54  44  69 SE7       30.19S
FORT SMITH     CLEAR     55  43  63 E12       30.19R
HARRISON       CLOUDY    50  33  52 SE14      30.24F
BENTONVILLE    CLOUDY    55  39  54 SE12      30.19F
ROGERS         CLOUDY    54  41  61 E12       30.19F
SILOAM SPGS    CLOUDY    55  43  62 SE6       30.17F
HIGHFILL       CLOUDY    55  43  63 E10       30.18S
$$

ARZ004-005-016-230500-
NORTH CENTRAL ARKANSAS

CITY           SKY/WX    TMP DP  RH WIND       PRES   REMARKS
BATESVILLE     CLOUDY    52  30  43 E8        30.31S
FLIPPIN        CLOUDY    52  28  40 SE6       30.26S
MTN HOME       CLOUDY    51  29  42 SE10      30.28R
$$

ARZ040-041-230500-
WEST CENTRAL ARKANSAS

CITY           SKY/WX    TMP DP  RH WIND       PRES   REMARKS
MENA           CLEAR     59  52  77 E7        30.19R
MOUNT IDA      CLEAR     56  45  66 E3        30.19R
$$

ARZ009-017-025-026-028-230500-
NORTHEAST ARKANSAS

CITY           SKY/WX    TMP DP  RH WIND       PRES   REMARKS
CORNING        CLOUDY    50  32  50 E14       30.33R
JONESBORO      MOCLDY    49  36  61 NE12      30.30S
NEWPORT        MOCLDY    50  41  71 MISG      30.31
WALNUT RIDGE   MOCLDY    50  34  53 NE8       30.31S
BLYTHEVILLE    PTCLDY    47  36  65 NE7       30.32R
$$

ARZ022-023-033-042-044-230500-
CENTRAL ARKANSAS

CITY           SKY/WX    TMP DP  RH WIND       PRES   REMARKS
LITTLE ROCK    PTCLDY    52  41  66 NE10      30.25F
N LITTLE ROCK    N/A     52  40  64 E9        30.26F
CONWAY           N/A     54  37  54 NE12      30.25S
SEARCY         MOCLDY    52  38  58 NE8       30.30S
HOT SPRINGS    CLEAR     56  45  66 E10       30.22S
RUSSELLVILLE   CLEAR     53  37  54 E6        30.24F
CLINTON        CLOUDY    48  41  76 CALM      30.29S
$$

ARZ036-230500-
EAST ARKANSAS

CITY           SKY/WX    TMP DP  RH WIND       PRES   REMARKS
WEST MEMPHIS   CLEAR     51  36  56 NE7       30.28R
$$

ARZ050-053-066-070-073-230500-
SOUTHWEST ARKANSAS

CITY           SKY/WX    TMP DP  RH WIND       PRES   REMARKS
ARKADELPHIA    FAIR      56  48  74 NE5       30.22S
CAMDEN         CLEAR     57  46  67 NE3       30.21S
TEXARKANA      CLEAR     61  51  70 E9        30.17R
EL DORADO      CLEAR     58  51  78 NE5       30.19S
DE QUEEN       CLEAR     60  51  72 E9        30.16R
$$

ARZ056-057-069-230500-
SOUTHEAST ARKANSAS

CITY           SKY/WX    TMP DP  RH WIND       PRES   REMARKS
PINE BLUFF     CLEAR     56  43  61 NE10      30.24S
STUTTGART      CLEAR     54  36  50 NE10      30.27F
MONTICELLO     CLEAR     58  46  64 NE9       30.22S

$$






USA.gov is the U.S. government's official web portal to all federal, state and local government web resources and services.